,,,PA_Meas_PMT16A,,PR_Meas_QMR101_102,,RH_Meas_QMH101,,SR_Meas_QMS101,,TA_Meas_QMH101,,GenWind,,GenWind,
date,time,status,PA,status,PR,status,RH,status,SR,status,TA,status,DirAvg,status,SpdAvg,
2010-02-25, 00:00:04,VALID,1001.55,VALID,0,VALID,92.6541,VALID,0,VALID,22.4916,VALID,26,VALID,1.05625,
2010-02-25, 00:01:04,VALID,1001.54,VALID,0,VALID,92.5549,VALID,0,VALID,22.4721,VALID,18,VALID,0.633203,
2010-02-25, 00:02:04,VALID,1001.51,VALID,0,VALID,92.6236,VALID,0,VALID,22.4331,VALID,18,VALID,0.719922,
2010-02-25, 00:03:04,VALID,1001.51,VALID,0,VALID,92.6846,VALID,0.112286,VALID,22.4526,VALID,16,VALID,0.572266,
2010-02-25, 00:04:04,VALID,1001.51,VALID,0,VALID,92.7151,VALID,0,VALID,22.4119,VALID,16,VALID,0.607813,
2010-02-25, 00:05:04,VALID,1001.48,VALID,0,VALID,92.7838,VALID,0,VALID,22.4136,VALID,16,VALID,0.542188,
2010-02-25, 00:06:04,VALID,1001.53,VALID,0,VALID,92.7762,VALID,0,VALID,22.4331,VALID,16,VALID,0.736328,
2010-02-25, 00:07:04,VALID,1001.52,VALID,0,VALID,92.8067,VALID,0,VALID,22.4543,VALID,16,VALID,0.537109,
2010-02-25, 00:08:04,VALID,1001.51,VALID,0,VALID,92.7533,VALID,0,VALID,22.4136,VALID,16,VALID,0.660156,
2010-02-25, 00:09:04,VALID,1001.52,VALID,0,VALID,92.822,VALID,0,VALID,22.3924,VALID,16,VALID,0.348437,
2010-02-25, 00:10:04,VALID,1001.49,VALID,0,VALID,92.9059,VALID,0,VALID,22.4526,VALID,11,VALID,0.484766,
2010-02-25, 00:11:04,VALID,1001.5,VALID,0,VALID,92.8906,VALID,0,VALID,22.4526,VALID,11,VALID,0.283984,
2010-02-25, 00:12:04,VALID,1001.5,VALID,0,VALID,92.9364,VALID,0,VALID,22.4721,VALID,322,VALID,0.469531,
2010-02-25, 00:13:04,VALID,1001.5,VALID,0,VALID,92.9898,VALID,0,VALID,22.4916,VALID,303,VALID,0.533203,
2010-02-25, 00:14:04,VALID,1001.51,VALID,0,VALID,92.9822,VALID,0,VALID,22.5519,VALID,303,VALID,0.204688,
2010-02-25, 00:15:04,VALID,1001.48,VALID,0,VALID,93.0356,VALID,0,VALID,22.5696,VALID,301,VALID,0.263281,
2010-02-25, 00:16:04,VALID,1001.48,VALID,0,VALID,93.0508,VALID,0,VALID,22.6087,VALID,271,VALID,0.577734,
2010-02-25, 00:17:04,VALID,1001.45,VALID,0,VALID,93.0737,VALID,0,VALID,22.6477,VALID,271,VALID,0.521484,
2010-02-25, 00:18:04,VALID,1001.45,VALID,0,VALID,93.0432,VALID,0,VALID,22.6867,VALID,271,VALID,0.399609,
2010-02-25, 00:19:04,VALID,1001.45,VALID,0,VALID,93.0127,VALID,0,VALID,22.7274,VALID,259,VALID,0.523047,
2010-02-25, 00:20:04,VALID,1001.43,VALID,0,VALID,92.9669,VALID,0,VALID,22.7062,VALID,259,VALID,0.376563,
2010-02-25, 00:21:04,VALID,1001.42,VALID,0,VALID,92.9364,VALID,0,VALID,22.7664,VALID,257,VALID,0.442969,
2010-02-25, 00:22:04,VALID,1001.42,VALID,0,VALID,92.9364,VALID,0,VALID,22.7647,VALID,240,VALID,0.776563,
2010-02-25, 00:23:04,VALID,1001.41,VALID,0,VALID,92.9211,VALID,0,VALID,22.8037,VALID,233,VALID,0.661719,
2010-02-25, 00:24:04,VALID,1001.41,VALID,0,VALID,92.8906,VALID,0,VALID,22.8232,VALID,233,VALID,0.474219,
2010-02-25, 00:25:04,VALID,1001.43,VALID,0,VALID,92.8601,VALID,0,VALID,22.8623,VALID,240,VALID,0.553516,
2010-02-25, 00:26:04,VALID,1001.42,VALID,0,VALID,92.8372,VALID,0,VALID,22.8818,VALID,240,VALID,0.0625,
2010-02-25, 00:27:04,VALID,1001.4,VALID,0,VALID,92.738,VALID,0,VALID,22.8818,VALID,240,VALID,0,
2010-02-25, 00:28:04,VALID,1001.42,VALID,0,VALID,92.7609,VALID,0,VALID,22.9208,VALID,240,VALID,0.345313,
2010-02-25, 00:29:04,VALID,1001.41,VALID,0,VALID,92.7533,VALID,0,VALID,22.9403,VALID,260,VALID,0.235547,
2010-02-25, 00:30:04,VALID,1001.4,VALID,0,VALID,92.6388,VALID,0,VALID,22.9403,VALID,258,VALID,0.254297,
2010-02-25, 00:31:04,VALID,1001.37,VALID,0,VALID,92.6617,VALID,0,VALID,22.9598,VALID,237,VALID,0.342969,
2010-02-25, 00:32:04,VALID,1001.32,VALID,0,VALID,92.5778,VALID,0,VALID,22.9598,VALID,237,VALID,0,
2010-02-25, 00:33:04,VALID,1001.3,VALID,0,VALID,92.4939,VALID,0,VALID,22.9403,VALID,237,VALID,0.253125,
2010-02-25, 00:34:04,VALID,1001.27,VALID,0,VALID,92.4328,VALID,0,VALID,22.9208,VALID,265,VALID,0.639844,
2010-02-25, 00:35:04,VALID,1001.27,VALID,0,VALID,92.4023,VALID,0,VALID,22.9225,VALID,268,VALID,0.484375,
2010-02-25, 00:36:04,VALID,1001.23,VALID,0,VALID,92.3718,VALID,0,VALID,22.8818,VALID,268,VALID,0.0917969,
2010-02-25, 00:37:04,VALID,1001.25,VALID,0,VALID,92.3413,VALID,0,VALID,22.8427,VALID,268,VALID,0,
2010-02-25, 00:38:04,VALID,1001.24,VALID,0,VALID,92.2345,VALID,0,VALID,22.7842,VALID,268,VALID,0,
2010-02-25, 00:39:04,VALID,1001.24,VALID,0,VALID,92.4176,VALID,0,VALID,22.7842,VALID,268,VALID,0.169531,
2010-02-25, 00:40:04,VALID,1001.25,VALID,0,VALID,92.5778,VALID,0,VALID,22.8232,VALID,268,VALID,0.181641,
2010-02-25, 00:41:04,VALID,1001.22,VALID,0,VALID,92.5626,VALID,0,VALID,22.8037,VALID,268,VALID,0,
2010-02-25, 00:42:04,VALID,1001.24,VALID,0,VALID,92.3489,VALID,0,VALID,22.7647,VALID,268,VALID,0,
2010-02-25, 00:43:04,VALID,1001.21,VALID,0,VALID,92.1353,VALID,0,VALID,22.7079,VALID,268,VALID,0,
2010-02-25, 00:44:04,VALID,1001.2,VALID,0,VALID,92.2421,VALID,0,VALID,22.6282,VALID,268,VALID,0,
2010-02-25, 00:45:04,VALID,1001.16,VALID,0,VALID,92.3642,VALID,0,VALID,22.5892,VALID,268,VALID,0,
2010-02-25, 00:46:04,VALID,1001.11,VALID,0,VALID,92.4328,VALID,0,VALID,22.5892,VALID,268,VALID,0,
2010-02-25, 00:47:04,VALID,1001.13,VALID,0,VALID,92.6236,VALID,0,VALID,22.6477,VALID,237,VALID,0,
2010-02-25, 00:48:04,VALID,1001.12,VALID,0,VALID,92.5702,VALID,0,VALID,22.6282,VALID,229,VALID,0,
2010-02-25, 00:49:04,VALID,1001.12,VALID,0,VALID,92.471,VALID,0,VALID,22.5892,VALID,229,VALID,0,
2010-02-25, 00:50:04,VALID,1001.12,VALID,0,VALID,92.4405,VALID,0,VALID,22.5696,VALID,229,VALID,0,
2010-02-25, 00:51:04,VALID,1001.16,VALID,0,VALID,92.6083,VALID,0,VALID,22.5696,VALID,229,VALID,0,
2010-02-25, 00:52:04,VALID,1001.13,VALID,0,VALID,92.6846,VALID,0,VALID,22.5696,VALID,229,VALID,0,
2010-02-25, 00:53:04,VALID,1001.14,VALID,0,VALID,92.7304,VALID,0,VALID,22.6104,VALID,229,VALID,0,
2010-02-25, 00:54:04,VALID,1001.13,VALID,0,VALID,92.738,VALID,0,VALID,22.6299,VALID,229,VALID,0,
2010-02-25, 00:55:04,VALID,1001.12,VALID,0,VALID,92.7457,VALID,0,VALID,22.6282,VALID,229,VALID,0,
2010-02-25, 00:56:04,VALID,1001.1,VALID,0,VALID,92.7075,VALID,0,VALID,22.6282,VALID,229,VALID,0,
2010-02-25, 00:57:04,VALID,1001.08,VALID,0,VALID,92.7075,VALID,0,VALID,22.6087,VALID,229,VALID,0,
2010-02-25, 00:58:04,VALID,1001.09,VALID,0,VALID,92.6312,VALID,0,VALID,22.5874,VALID,229,VALID,0,
2010-02-25, 00:59:04,VALID,1001.1,VALID,0,VALID,92.6541,VALID,0,VALID,22.5696,VALID,229,VALID,0,
2010-02-25, 01:00:04,VALID,1001.06,VALID,0,VALID,92.4252,VALID,0,VALID,22.4916,VALID,229,VALID,0,
2010-02-25, 01:01:04,VALID,1001.04,VALID,0,VALID,92.616,VALID,0,VALID,22.4526,VALID,229,VALID,0,
2010-02-25, 01:02:04,VALID,1001.02,VALID,0,VALID,92.3718,VALID,0,VALID,22.4153,VALID,229,VALID,0,
2010-02-25, 01:03:04,VALID,1001.01,VALID,0,VALID,92.7151,VALID,0,VALID,22.3941,VALID,229,VALID,0,
2010-02-25, 01:04:04,VALID,1000.99,VALID,0,VALID,92.7533,VALID,0,VALID,22.3746,VALID,214,VALID,0,
2010-02-25, 01:05:04,VALID,1001,VALID,0,VALID,92.8906,VALID,0,VALID,22.3729,VALID,163,VALID,0,
2010-02-25, 01:06:04,VALID,1000.94,VALID,0,VALID,92.738,VALID,0,VALID,22.3763,VALID,163,VALID,0,
2010-02-25, 01:07:04,VALID,1000.9,VALID,0,VALID,92.6999,VALID,0,VALID,22.3161,VALID,163,VALID,0,
2010-02-25, 01:08:04,VALID,1000.86,VALID,0,VALID,92.6465,VALID,0,VALID,22.2576,VALID,163,VALID,0,
2010-02-25, 01:09:04,VALID,1000.88,VALID,0,VALID,92.5854,VALID,0,VALID,22.2186,VALID,163,VALID,0.279687,
2010-02-25, 01:10:04,VALID,1000.87,VALID,0,VALID,92.6694,VALID,0,VALID,22.199,VALID,163,VALID,0.533203,
2010-02-25, 01:11:04,VALID,1000.86,VALID,0,VALID,92.7914,VALID,0,VALID,22.1795,VALID,163,VALID,0.910156,
2010-02-25, 01:12:04,VALID,1000.85,VALID,0,VALID,92.9669,VALID,0,VALID,22.2186,VALID,160,VALID,0.7875,
2010-02-25, 01:13:04,VALID,1000.83,VALID,0,VALID,92.8067,VALID,0,VALID,22.199,VALID,151,VALID,0.512891,
2010-02-25, 01:14:04,VALID,1000.8,VALID,0,VALID,92.677,VALID,0,VALID,22.1405,VALID,151,VALID,0,
2010-02-25, 01:15:04,VALID,1000.79,VALID,0,VALID,92.532,VALID,0,VALID,22.082,VALID,151,VALID,0,
2010-02-25, 01:16:04,VALID,1000.77,VALID,0,VALID,92.5549,VALID,0,VALID,22.0235,VALID,151,VALID,0,
2010-02-25, 01:17:04,VALID,1000.74,VALID,0,VALID,92.5778,VALID,0,VALID,21.9845,VALID,151,VALID,0.0746094,
2010-02-25, 01:18:04,VALID,1000.75,VALID,0,VALID,92.5397,VALID,0,VALID,21.965,VALID,151,VALID,0,
2010-02-25, 01:19:04,VALID,1000.71,VALID,0,VALID,92.471,VALID,0,VALID,21.9065,VALID,151,VALID,0.221094,
2010-02-25, 01:20:04,VALID,1000.74,VALID,0,VALID,92.3871,VALID,0,VALID,21.8285,VALID,151,VALID,0,
2010-02-25, 01:21:04,VALID,1000.72,VALID,0,VALID,92.3871,VALID,0,VALID,21.77,VALID,151,VALID,0.0328125,
2010-02-25, 01:22:04,VALID,1000.71,VALID,0,VALID,92.4405,VALID,0,VALID,21.731,VALID,151,VALID,0.090625,
2010-02-25, 01:23:04,VALID,1000.68,VALID,0,VALID,92.5778,VALID,0,VALID,21.7115,VALID,151,VALID,0,
2010-02-25, 01:24:04,VALID,1000.68,VALID,0,VALID,92.7762,VALID,0,VALID,21.7505,VALID,151,VALID,0,
2010-02-25, 01:25:04,VALID,1000.68,VALID,0,VALID,92.822,VALID,0,VALID,21.7895,VALID,151,VALID,0,
2010-02-25, 01:26:04,VALID,1000.65,VALID,0,VALID,92.9669,VALID,0,VALID,21.809,VALID,151,VALID,0,
2010-02-25, 01:27:04,VALID,1000.63,VALID,0,VALID,93.028,VALID,0,VALID,21.848,VALID,151,VALID,0,
2010-02-25, 01:28:04,VALID,1000.63,VALID,0,VALID,92.9745,VALID,0,VALID,21.8675,VALID,335,VALID,0.378516,
2010-02-25, 01:29:04,VALID,1000.62,VALID,0,VALID,92.7991,VALID,0,VALID,21.8285,VALID,335,VALID,0.461328,
2010-02-25, 01:30:04,VALID,1000.63,VALID,0,VALID,92.7075,VALID,0,VALID,21.7716,VALID,335,VALID,0.208984,
2010-02-25, 01:31:04,VALID,1000.61,VALID,0,VALID,92.944,VALID,0,VALID,21.7895,VALID,335,VALID,0,
2010-02-25, 01:32:04,VALID,1000.58,VALID,0,VALID,93.0508,VALID,0,VALID,21.809,VALID,335,VALID,0,
2010-02-25, 01:33:04,VALID,1000.56,VALID,0,VALID,93.2034,VALID,0,VALID,21.887,VALID,335,VALID,0.127344,
2010-02-25, 01:34:04,VALID,1000.58,VALID,0,VALID,93.1271,VALID,0,VALID,21.887,VALID,335,VALID,0.558984,
2010-02-25, 01:35:04,VALID,1000.56,VALID,0,VALID,93.2111,VALID,0,VALID,21.9065,VALID,335,VALID,0.264453,
2010-02-25, 01:36:04,VALID,1000.56,VALID,0,VALID,93.2111,VALID,0,VALID,21.9455,VALID,335,VALID,0,
2010-02-25, 01:37:04,VALID,1000.52,VALID,0,VALID,93.1958,VALID,0,VALID,21.965,VALID,335,VALID,0,
2010-02-25, 01:38:04,VALID,1000.54,VALID,0,VALID,93.1958,VALID,0,VALID,21.965,VALID,335,VALID,0,
2010-02-25, 01:39:04,VALID,1000.5,VALID,0,VALID,93.234,VALID,0,VALID,22.004,VALID,335,VALID,0,
2010-02-25, 01:40:04,VALID,1000.5,VALID,0,VALID,93.2874,VALID,0,VALID,22.043,VALID,335,VALID,0,
2010-02-25, 01:41:04,VALID,1000.51,VALID,0,VALID,93.2797,VALID,0,VALID,22.043,VALID,335,VALID,0,
2010-02-25, 01:42:04,VALID,1000.49,VALID,0,VALID,93.234,VALID,0,VALID,22.043,VALID,335,VALID,0,
2010-02-25, 01:43:04,VALID,1000.47,VALID,0,VALID,93.2568,VALID,0,VALID,22.043,VALID,335,VALID,0,
2010-02-25, 01:44:04,VALID,1000.5,VALID,0,VALID,93.3026,VALID,0,VALID,22.0625,VALID,335,VALID,0,
2010-02-25, 01:45:04,VALID,1000.47,VALID,0,VALID,93.3484,VALID,0,VALID,22.1015,VALID,335,VALID,0,
2010-02-25, 01:46:04,VALID,1000.52,VALID,0,VALID,93.3255,VALID,0,VALID,22.1015,VALID,335,VALID,0,
2010-02-25, 01:47:04,VALID,1000.49,VALID,0,VALID,93.2797,VALID,0,VALID,22.1032,VALID,335,VALID,0,
2010-02-25, 01:48:04,VALID,1000.51,VALID,0,VALID,93.2111,VALID,0,VALID,22.0625,VALID,335,VALID,0,
2010-02-25, 01:49:04,VALID,1000.49,VALID,0,VALID,93.0661,VALID,0,VALID,22.0057,VALID,335,VALID,0,
2010-02-25, 01:50:04,VALID,1000.49,VALID,0,VALID,92.9059,VALID,0,VALID,21.9065,VALID,335,VALID,0,
2010-02-25, 01:51:04,VALID,1000.47,VALID,0,VALID,93.0203,VALID,0,VALID,21.8675,VALID,335,VALID,0,
2010-02-25, 01:52:04,VALID,1000.46,VALID,0,VALID,93.1043,VALID,0,VALID,21.8496,VALID,335,VALID,0,
2010-02-25, 01:53:04,VALID,1000.43,VALID,0,VALID,93.0585,VALID,0,VALID,21.8301,VALID,335,VALID,0,
2010-02-25, 01:54:04,VALID,1000.42,VALID,0,VALID,93.0508,VALID,0,VALID,21.7115,VALID,336,VALID,0.790234,
2010-02-25, 01:55:04,VALID,1000.44,VALID,0,VALID,93.3637,VALID,0,VALID,21.7895,VALID,336,VALID,0.594922,
2010-02-25, 01:56:04,VALID,1000.43,VALID,0,VALID,93.4552,VALID,0,VALID,21.8285,VALID,335,VALID,0.295312,
2010-02-25, 01:57:04,VALID,1000.46,VALID,0,VALID,93.2645,VALID,0,VALID,21.809,VALID,335,VALID,0,
2010-02-25, 01:58:04,VALID,1000.5,VALID,0,VALID,93.4476,VALID,0,VALID,21.7911,VALID,336,VALID,0.450391,
2010-02-25, 01:59:04,VALID,1000.53,VALID,0,VALID,93.4171,VALID,0,VALID,21.7895,VALID,78,VALID,0.930469,
2010-02-25, 02:00:04,VALID,1000.51,VALID,0,VALID,93.5315,VALID,0,VALID,21.809,VALID,77,VALID,0.868359,
2010-02-25, 02:01:04,VALID,1000.57,VALID,0,VALID,93.3942,VALID,0,VALID,21.809,VALID,71,VALID,1.21758,
2010-02-25, 02:02:04,VALID,1000.57,VALID,0,VALID,93.2416,VALID,0.112286,VALID,21.731,VALID,70,VALID,0.959766,
2010-02-25, 02:03:04,VALID,1000.54,VALID,0,VALID,93.2111,VALID,0,VALID,21.6725,VALID,70,VALID,0.699609,
2010-02-25, 02:04:04,VALID,1000.52,VALID,0,VALID,93.3179,VALID,0,VALID,21.6335,VALID,70,VALID,0.845703,
2010-02-25, 02:05:04,VALID,1000.51,VALID,0,VALID,93.2874,VALID,0,VALID,21.6335,VALID,60,VALID,1.18867,
2010-02-25, 02:06:04,VALID,1000.52,VALID,0,VALID,93.1653,VALID,0,VALID,21.5766,VALID,63,VALID,1.41094,
2010-02-25, 02:07:04,VALID,1000.47,VALID,0,VALID,93.295,VALID,0,VALID,21.5571,VALID,60,VALID,1.26055,
2010-02-25, 02:08:04,VALID,1000.47,VALID,0,VALID,93.3866,VALID,0,VALID,21.5555,VALID,61,VALID,0.749609,
2010-02-25, 02:09:04,VALID,1000.44,VALID,0,VALID,93.3103,VALID,0,VALID,21.536,VALID,62,VALID,0.457031,
2010-02-25, 02:10:04,VALID,1000.46,VALID,0,VALID,93.3713,VALID,0,VALID,21.5376,VALID,62,VALID,0.659375,
2010-02-25, 02:11:04,VALID,1000.45,VALID,0,VALID,93.4094,VALID,0,VALID,21.5165,VALID,62,VALID,0.687891,
2010-02-25, 02:12:04,VALID,1000.43,VALID,0,VALID,93.4323,VALID,0,VALID,21.5165,VALID,79,VALID,0.437891,
2010-02-25, 02:13:04,VALID,1000.42,VALID,0,VALID,93.4171,VALID,0,VALID,21.5165,VALID,95,VALID,0.380469,
2010-02-25, 02:14:04,VALID,1000.41,VALID,0,VALID,93.4247,VALID,0,VALID,21.5165,VALID,133,VALID,0.656641,
2010-02-25, 02:15:04,VALID,1000.42,VALID,0,VALID,93.4781,VALID,0,VALID,21.536,VALID,133,VALID,0.825,
2010-02-25, 02:16:04,VALID,1000.43,VALID,0,VALID,93.5468,VALID,0,VALID,21.5555,VALID,133,VALID,0.694141,
2010-02-25, 02:17:04,VALID,1000.47,VALID,0,VALID,93.4323,VALID,0,VALID,21.5376,VALID,133,VALID,0,
2010-02-25, 02:18:04,VALID,1000.48,VALID,0,VALID,93.2874,VALID,0,VALID,21.4385,VALID,131,VALID,0,
2010-02-25, 02:19:04,VALID,1000.46,VALID,0,VALID,93.2797,VALID,0,VALID,21.38,VALID,70,VALID,0,
2010-02-25, 02:20:04,VALID,1000.47,VALID,0,VALID,93.3942,VALID,0,VALID,21.3995,VALID,70,VALID,0,
2010-02-25, 02:21:04,VALID,1000.44,VALID,0,VALID,93.4171,VALID,0,VALID,21.4206,VALID,70,VALID,0,
2010-02-25, 02:22:04,VALID,1000.44,VALID,0,VALID,93.501,VALID,0,VALID,21.4791,VALID,70,VALID,0,
2010-02-25, 02:23:04,VALID,1000.44,VALID,0,VALID,93.5697,VALID,0,VALID,21.536,VALID,82,VALID,0,
2010-02-25, 02:24:04,VALID,1000.42,VALID,0,VALID,93.646,VALID,0.112286,VALID,21.5945,VALID,124,VALID,0,
2010-02-25, 02:25:04,VALID,1000.42,VALID,0,VALID,93.7223,VALID,0,VALID,21.692,VALID,124,VALID,0,
2010-02-25, 02:26:04,VALID,1000.44,VALID,0,VALID,93.8214,VALID,0,VALID,21.77,VALID,124,VALID,0,
2010-02-25, 02:27:04,VALID,1000.44,VALID,0,VALID,93.8214,VALID,0.112286,VALID,21.8285,VALID,138,VALID,0,
2010-02-25, 02:28:04,VALID,1000.43,VALID,0,VALID,93.8977,VALID,0,VALID,21.9455,VALID,154,VALID,0.779688,
2010-02-25, 02:29:04,VALID,1000.39,VALID,0,VALID,93.8901,VALID,0,VALID,22.0235,VALID,154,VALID,0.899609,
2010-02-25, 02:30:04,VALID,1000.39,VALID,0,VALID,93.8367,VALID,0,VALID,22.0235,VALID,157,VALID,0.934375,
2010-02-25, 02:31:04,VALID,1000.42,VALID,0,VALID,93.7604,VALID,0,VALID,22.0235,VALID,155,VALID,0.572656,
2010-02-25, 02:32:04,VALID,1000.45,VALID,0,VALID,93.646,VALID,0,VALID,22.0057,VALID,146,VALID,0.289844,
2010-02-25, 02:33:04,VALID,1000.44,VALID,0,VALID,93.5391,VALID,0,VALID,21.926,VALID,141,VALID,0.415234,
2010-02-25, 02:34:04,VALID,1000.45,VALID,0,VALID,93.6154,VALID,0,VALID,21.926,VALID,141,VALID,0.482812,
2010-02-25, 02:35:04,VALID,1000.44,VALID,0,VALID,93.7375,VALID,0,VALID,22.004,VALID,141,VALID,0.571094,
2010-02-25, 02:36:04,VALID,1000.39,VALID,0,VALID,93.7528,VALID,0,VALID,22.0625,VALID,166,VALID,0.819141,
2010-02-25, 02:37:04,VALID,1000.39,VALID,0,VALID,93.768,VALID,0,VALID,22.121,VALID,182,VALID,1.08906,
2010-02-25, 02:38:04,VALID,1000.39,VALID,0,VALID,93.7528,VALID,0,VALID,22.1795,VALID,183,VALID,0.961719,
2010-02-25, 02:39:04,VALID,1000.37,VALID,0,VALID,93.7451,VALID,0,VALID,22.2397,VALID,183,VALID,0.851172,
2010-02-25, 02:40:04,VALID,1000.4,VALID,0,VALID,93.7223,VALID,0,VALID,22.2771,VALID,185,VALID,0.737109,
2010-02-25, 02:41:04,VALID,1000.41,VALID,0,VALID,93.646,VALID,0,VALID,22.2983,VALID,174,VALID,0.424219,
2010-02-25, 02:42:04,VALID,1000.38,VALID,0,VALID,93.5849,VALID,0,VALID,22.2788,VALID,174,VALID,0,
2010-02-25, 02:43:04,VALID,1000.42,VALID,0,VALID,93.3026,VALID,0,VALID,22.082,VALID,174,VALID,0,
2010-02-25, 02:44:04,VALID,1000.43,VALID,0,VALID,93.0737,VALID,0,VALID,21.926,VALID,174,VALID,0,
2010-02-25, 02:45:04,VALID,1000.42,VALID,0,VALID,93.0508,VALID,0,VALID,21.8496,VALID,174,VALID,0,
2010-02-25, 02:46:04,VALID,1000.46,VALID,0,VALID,93.0127,VALID,0,VALID,21.8123,VALID,174,VALID,0,
2010-02-25, 02:47:04,VALID,1000.48,VALID,0,VALID,93.0661,VALID,0,VALID,21.7716,VALID,174,VALID,0,
2010-02-25, 02:48:04,VALID,1000.44,VALID,0,VALID,93.0966,VALID,0,VALID,21.6936,VALID,174,VALID,0,
2010-02-25, 02:49:04,VALID,1000.45,VALID,0,VALID,93.3789,VALID,0,VALID,21.7716,VALID,159,VALID,0.535156,
2010-02-25, 02:50:04,VALID,1000.44,VALID,0,VALID,93.3789,VALID,0,VALID,21.7911,VALID,157,VALID,0.814062,
2010-02-25, 02:51:04,VALID,1000.44,VALID,0,VALID,93.5163,VALID,0,VALID,21.8692,VALID,170,VALID,0.870313,
2010-02-25, 02:52:04,VALID,1000.42,VALID,0,VALID,93.6612,VALID,0,VALID,22.0269,VALID,178,VALID,0.928516,
2010-02-25, 02:53:04,VALID,1000.47,VALID,0,VALID,93.6688,VALID,0,VALID,22.0642,VALID,174,VALID,0.594531,
2010-02-25, 02:54:04,VALID,1000.47,VALID,0,VALID,93.3408,VALID,0,VALID,22.0252,VALID,98,VALID,0.445313,
2010-02-25, 02:55:04,VALID,1000.46,VALID,0,VALID,93.2492,VALID,0,VALID,21.9277,VALID,46,VALID,0.879687,
2010-02-25, 02:56:04,VALID,1000.47,VALID,0,VALID,93.4247,VALID,0,VALID,21.9082,VALID,47,VALID,0.411328,
2010-02-25, 02:57:04,VALID,1000.45,VALID,0,VALID,93.5163,VALID,0,VALID,21.9683,VALID,47,VALID,0,
2010-02-25, 02:58:04,VALID,1000.45,VALID,0,VALID,93.4705,VALID,0,VALID,21.9667,VALID,47,VALID,0,
2010-02-25, 02:59:04,VALID,1000.44,VALID,0,VALID,93.5468,VALID,0,VALID,22.0057,VALID,47,VALID,0,
2010-02-25, 03:00:04,VALID,1000.42,VALID,0,VALID,93.562,VALID,0,VALID,22.082,VALID,184,VALID,0,
2010-02-25, 03:01:04,VALID,1000.42,VALID,0,VALID,93.5849,VALID,0,VALID,22.1405,VALID,184,VALID,0.181641,
2010-02-25, 03:02:04,VALID,1000.41,VALID,0,VALID,93.5849,VALID,0,VALID,22.16,VALID,178,VALID,0.800781,
2010-02-25, 03:03:04,VALID,1000.43,VALID,0,VALID,93.5544,VALID,0,VALID,22.1795,VALID,148,VALID,0.466797,
2010-02-25, 03:04:04,VALID,1000.42,VALID,0,VALID,93.5163,VALID,0,VALID,22.1795,VALID,148,VALID,0.315625,
2010-02-25, 03:05:04,VALID,1000.44,VALID,0,VALID,93.2111,VALID,0.112286,VALID,22.0625,VALID,360,VALID,0.558984,
2010-02-25, 03:06:04,VALID,1000.45,VALID,0,VALID,92.8754,VALID,0,VALID,21.9065,VALID,358,VALID,0.563672,
2010-02-25, 03:07:04,VALID,1000.46,VALID,0,VALID,92.8525,VALID,0,VALID,21.809,VALID,346,VALID,0.458984,
2010-02-25, 03:08:04,VALID,1000.46,VALID,0,VALID,92.9822,VALID,0,VALID,21.77,VALID,346,VALID,0.0421875,
2010-02-25, 03:09:04,VALID,1000.46,VALID,0,VALID,93.1119,VALID,0,VALID,21.7895,VALID,346,VALID,0,
2010-02-25, 03:10:04,VALID,1000.47,VALID,0,VALID,93.1424,VALID,0,VALID,21.7895,VALID,346,VALID,0,
2010-02-25, 03:11:04,VALID,1000.48,VALID,0,VALID,92.9898,VALID,0,VALID,21.7505,VALID,352,VALID,0.270312,
2010-02-25, 03:12:04,VALID,1000.45,VALID,0,VALID,93.356,VALID,0,VALID,21.7521,VALID,60,VALID,1.02188,
2010-02-25, 03:13:04,VALID,1000.42,VALID,0,VALID,93.0432,VALID,0,VALID,21.7115,VALID,53,VALID,1.43594,
2010-02-25, 03:14:04,VALID,1000.4,VALID,0,VALID,93.028,VALID,0,VALID,21.653,VALID,53,VALID,1.1418,
2010-02-25, 03:15:04,VALID,1000.37,VALID,0,VALID,93.2263,VALID,0,VALID,21.6725,VALID,53,VALID,0.629297,
2010-02-25, 03:16:04,VALID,1000.36,VALID,0,VALID,93.2416,VALID,0,VALID,21.692,VALID,53,VALID,0,
2010-02-25, 03:17:04,VALID,1000.41,VALID,0,VALID,93.2416,VALID,0,VALID,21.692,VALID,53,VALID,0,
2010-02-25, 03:18:04,VALID,1000.37,VALID,0,VALID,93.2416,VALID,0,VALID,21.692,VALID,53,VALID,0,
2010-02-25, 03:19:04,VALID,1000.38,VALID,0,VALID,93.1653,VALID,0,VALID,21.653,VALID,53,VALID,0,
2010-02-25, 03:20:04,VALID,1000.37,VALID,0,VALID,93.3789,VALID,0,VALID,21.7131,VALID,67,VALID,0,
2010-02-25, 03:21:04,VALID,1000.39,VALID,0,VALID,93.4781,VALID,0,VALID,21.7505,VALID,72,VALID,0.607813,
2010-02-25, 03:22:04,VALID,1000.39,VALID,0,VALID,93.4552,VALID,0,VALID,21.7895,VALID,70,VALID,0.958203,
2010-02-25, 03:23:04,VALID,1000.4,VALID,0,VALID,93.2874,VALID,0,VALID,21.77,VALID,63,VALID,0.955859,
2010-02-25, 03:24:04,VALID,1000.41,VALID,0,VALID,93.1882,VALID,0,VALID,21.731,VALID,59,VALID,0.606641,
2010-02-25, 03:25:04,VALID,1000.42,VALID,0,VALID,93.1424,VALID,0,VALID,21.692,VALID,59,VALID,0.195313,
2010-02-25, 03:26:04,VALID,1000.39,VALID,0,VALID,93.1271,VALID,0,VALID,21.653,VALID,59,VALID,0,
2010-02-25, 03:27:04,VALID,1000.41,VALID,0,VALID,93.1043,VALID,0,VALID,21.6546,VALID,59,VALID,0,
2010-02-25, 03:28:04,VALID,1000.41,VALID,0,VALID,93.1195,VALID,0,VALID,21.614,VALID,59,VALID,0,
2010-02-25, 03:29:04,VALID,1000.38,VALID,0,VALID,93.1729,VALID,0,VALID,21.614,VALID,59,VALID,0,
2010-02-25, 03:30:04,VALID,1000.38,VALID,0,VALID,93.1271,VALID,0,VALID,21.5945,VALID,15,VALID,0.666797,
2010-02-25, 03:31:04,VALID,1000.39,VALID,0,VALID,93.15,VALID,0,VALID,21.575,VALID,10,VALID,0.671094,
2010-02-25, 03:32:04,VALID,1000.37,VALID,0,VALID,93.2263,VALID,0,VALID,21.5945,VALID,4,VALID,0.541406,
2010-02-25, 03:33:04,VALID,1000.36,VALID,0,VALID,93.234,VALID,0,VALID,21.5945,VALID,353,VALID,0.119141,
2010-02-25, 03:34:04,VALID,1000.37,VALID,0,VALID,93.2263,VALID,0,VALID,21.575,VALID,353,VALID,0,
2010-02-25, 03:35:04,VALID,1000.38,VALID,0,VALID,93.1882,VALID,0,VALID,21.575,VALID,353,VALID,0,
2010-02-25, 03:36:04,VALID,1000.4,VALID,0,VALID,93.15,VALID,0,VALID,21.5343,VALID,353,VALID,0,
2010-02-25, 03:37:04,VALID,1000.41,VALID,0,VALID,93.1805,VALID,0,VALID,21.536,VALID,353,VALID,0.116797,
2010-02-25, 03:38:04,VALID,1000.42,VALID,0,VALID,93.2645,VALID,0,VALID,21.5555,VALID,354,VALID,0.676172,
2010-02-25, 03:39:04,VALID,1000.42,VALID,0,VALID,93.3637,VALID,0,VALID,21.614,VALID,359,VALID,0.674609,
2010-02-25, 03:40:04,VALID,1000.4,VALID,0,VALID,93.4247,VALID,0,VALID,21.614,VALID,1,VALID,0.685938,
2010-02-25, 03:41:04,VALID,1000.4,VALID,0,VALID,93.4171,VALID,0,VALID,21.6335,VALID,7,VALID,0.316016,
2010-02-25, 03:42:04,VALID,1000.41,VALID,0,VALID,93.356,VALID,0.112286,VALID,21.614,VALID,7,VALID,0.253516,
2010-02-25, 03:43:04,VALID,1000.4,VALID,0,VALID,93.2797,VALID,0,VALID,21.5945,VALID,7,VALID,0,
2010-02-25, 03:44:04,VALID,1000.39,VALID,0,VALID,93.2568,VALID,0,VALID,21.5555,VALID,7,VALID,0,
2010-02-25, 03:45:04,VALID,1000.38,VALID,0,VALID,93.2645,VALID,0,VALID,21.536,VALID,7,VALID,0,
2010-02-25, 03:46:04,VALID,1000.42,VALID,0,VALID,93.3484,VALID,0,VALID,21.536,VALID,7,VALID,0,
2010-02-25, 03:47:04,VALID,1000.43,VALID,0,VALID,93.3789,VALID,0,VALID,21.536,VALID,7,VALID,0,
2010-02-25, 03:48:04,VALID,1000.43,VALID,0,VALID,93.44,VALID,0,VALID,21.5555,VALID,7,VALID,0,
2010-02-25, 03:49:04,VALID,1000.41,VALID,0,VALID,93.4247,VALID,0,VALID,21.5555,VALID,57,VALID,0.521875,
2010-02-25, 03:50:04,VALID,1000.4,VALID,0,VALID,93.4934,VALID,0,VALID,21.575,VALID,57,VALID,0.346484,
2010-02-25, 03:51:04,VALID,1000.38,VALID,0,VALID,93.4171,VALID,0,VALID,21.5555,VALID,57,VALID,0.240234,
2010-02-25, 03:52:04,VALID,1000.39,VALID,0,VALID,93.3713,VALID,0,VALID,21.536,VALID,57,VALID,0,